DW8913 Weather Reports


time (UTC)temp
C
wind
direction
speed
KPH
gust
KPH
rain 1hr
cm
rain 24hr
cm
rain mn
cm
humidity
%
barometer
mb
20260904170056 31 51 1.6 11.3 0.00 0.23 0.23 60 1011.4
20260904164526 31 2 1.6 6.4 0.00 0.23 0.23 61 1011.5
20260904163002 31 97 0.0 11.3 0.00 0.23 0.23 62 1011.5
20260904161553 31 255 0.0 6.4 0.00 0.23 0.23 63 1011.6
20260904160013 31 27 1.6 8.0 0.00 0.23 0.23 62 1011.8
20260904154551 30 45 1.6 9.7 0.00 0.23 0.23 64 1011.8
20260904153019 30 51 1.6 11.3 0.00 0.23 0.23 65 1011.7
20260904151609 30 276 3.2 12.9 0.00 0.23 0.23 66 1011.9
20260904150034 29 149 1.6 14.5 0.00 0.23 0.23 67 1011.8
20260904144506 30 9 1.6 8.0 0.00 0.23 0.23 67 1011.8
20260904143044 28 243 0.0 8.0 0.00 0.23 0.23 69 1011.7
20260904141519 28 235 1.6 9.7 0.00 0.23 0.23 70 1011.7
20260904134530 27 269 1.6 8.0 0.00 0.25 0.23 74 1011.4
20260904133104 27 76 1.6 8.0 0.00 0.25 0.23 75 1011.4
20260904131532 26 231 3.2 8.0 0.00 0.25 0.23 78 1011.5
20260904130008 26 356 1.6 11.3 0.00 0.25 0.23 80 1011.5
20260904124544 25 158 1.6 11.3 0.00 0.30 0.23 82 1011.4
20260904123014 25 51 1.6 11.3 0.00 0.30 0.23 86 1011.5
20260904121554 23 172 3.2 11.3 0.00 0.30 0.23 89 1011.5
20260904120038 23 44 3.2 9.7 0.00 0.30 0.23 91 1011.6
20260904114501 23 277 1.6 8.0 0.00 0.30 0.23 91 1011.4
20260904113044 23 172 1.6 6.4 0.00 0.30 0.23 91 1011.5
20260904111513 23 130 0.0 4.8 0.00 0.30 0.23 92 1011.2
20260904110052 23 43 0.0 3.2 0.00 0.30 0.23 92 1011.3
20260904104534 23 51 0.0 3.2 0.00 0.53 0.23 92 1010.8
20260904103105 23 43 0.0 3.2 0.00 0.53 0.23 92 1010.8
20260904101539 23 105 0.0 3.2 0.00 0.53 0.23 91 1011.0
20260904100003 23 185 0.0 4.8 0.00 0.53 0.23 91 1010.9
20260904094554 23 252 0.0 4.8 0.00 0.99 0.23 91 1011.1
20260904093111 23 296 0.0 4.8 0.00 0.99 0.23 90 1011.0
20260904091539 23 172 0.0 6.4 0.00 0.99 0.23 89 1011.2
20260904090014 23 57 0.0 4.8 0.00 0.99 0.23 88 1011.1
20260904084545 23 96 1.6 11.3 0.00 1.17 0.23 88 1011.3
20260904083019 23 64 1.6 8.0 0.03 1.17 0.23 90 1011.5
20260904081559 23 33 1.6 6.4 0.18 1.17 0.23 90 1011.5
20260904080030 23 60 0.0 8.0 0.20 1.17 0.23 90 1011.5
20260904074610 23 25 0.0 4.8 0.23 3.02 0.23 90 1011.7
20260904073035 23 243 0.0 6.4 0.20 3.00 0.20 88 1011.8
20260904071501 24 81 3.2 11.3 0.03 2.82 0.03 85 1011.7
20260904070044 25 72 1.6 9.7 0.03 2.82 0.03 85 1011.3
20260904064508 25 111 1.6 8.0 0.00 2.79 0.00 85 1011.3
20260904063053 26 300 4.8 19.3 0.00 2.79 0.00 89 1011.2
20260904061527 26 160 0.0 3.2 0.00 2.79 0.00 91 1011.0
20260904060116 26 151 0.0 0.0 0.00 2.79 0.00 90 1011.1
20260904054523 26 136 0.0 3.2 0.00 2.79 0.00 90 1011.0
20260904053148 26 160 0.0 3.2 0.00 2.79 0.00 90 1011.3
20260904051545 26 168 0.0 0.0 0.00 2.79 0.00 89 1011.3
20260904050023 26 157 0.0 0.0 0.00 2.79 0.00 89 1011.8
20260904044600 26 120 0.0 0.0 0.00 2.79 0.00 88 1011.3
20260904043020 26 186 0.0 0.0 0.00 2.79 0.00 87 1011.7
20260904041609 26 101 0.0 0.0 0.00 2.79 0.00 87 1011.8
20260904040049 26 169 0.0 4.8 0.00 2.79 0.00 87 1012.2
20260904034518 26 159 0.0 1.6 0.00 2.79 2.79 87 1012.4
20260904033104 26 73 0.0 1.6 0.00 2.79 2.79 86 1012.6
20260904031525 26 166 0.0 3.2 0.00 2.79 2.79 86 1012.7
20260904024533 25 157 0.0 0.0 0.00 2.79 2.79 86 1012.3
20260904023113 25 158 0.0 1.6 0.00 2.79 2.79 86 1012.3
20260904021541 25 55 0.0 0.0 0.00 2.79 2.79 86 1012.6
20260904020009 25 56 0.0 0.0 0.00 2.79 2.79 86 1012.9
20260904014605 25 21 0.0 0.0 0.00 2.79 2.79 86 1013.0
20260904013028 26 20 0.0 0.0 0.00 2.79 2.79 85 1013.1
20260904011610 26 20 0.0 0.0 0.00 2.79 2.79 84 1013.2
20260904010045 26 24 0.0 0.0 0.00 2.79 2.79 84 1013.4
20260904004513 26 339 0.0 0.0 0.00 2.79 2.79 83 1013.4
20260904003052 26 343 0.0 0.0 0.00 2.79 2.79 83 1013.0
20260904001526 26 96 0.0 1.6 0.00 2.79 2.79 82 1012.9
20260904000113 26 96 0.0 0.0 0.00 2.79 2.79 82 1012.7
20260903234520 27 354 0.0 0.0 0.00 2.79 2.79 80 1012.4
20260903233126 27 231 0.0 1.6 0.00 2.79 2.79 78 1012.4
20260903231536 28 137 0.0 1.6 0.00 2.79 2.79 77 1012.3
20260903230001 28 188 0.0 3.2 0.00 2.79 2.79 75 1012.1
20260903224547 28 355 0.0 1.6 0.00 2.79 2.79 74 1012.0
20260903223024 29 168 0.0 4.8 0.00 2.79 2.79 74 1012.0
20260903221559 29 64 0.0 4.8 0.00 2.79 2.79 74 1012.1
20260903220025 29 186 1.6 4.8 0.00 2.79 2.79 75 1012.0
20260903214606 29 85 0.0 8.0 0.00 2.79 2.79 75 1012.2
20260903213044 29 78 1.6 8.0 0.00 2.79 2.79 76 1012.1
20260903211612 29 179 1.6 6.4 0.00 2.79 2.79 76 1012.3
20260903210057 30 164 0.0 6.4 0.00 2.79 2.79 76 1012.3
20260903204506 30 72 1.6 6.4 0.00 2.82 2.79 75 1012.5
20260903203041 29 131 1.6 8.0 0.00 2.82 2.79 76 1012.3
20260903201515 30 68 1.6 9.7 0.00 2.82 2.79 74 1012.5
20260903200049 30 169 1.6 6.4 0.00 2.82 2.79 74 1012.7
20260903194534 30 53 0.0 11.3 0.00 2.84 2.79 72 1013.1
20260903193103 30 72 1.6 8.0 0.00 2.84 2.79 72 1013.2
20260903191529 30 354 0.0 6.4 0.00 2.84 2.79 74 1013.5
20260903190110 30 194 1.6 6.4 0.00 2.84 2.79 73 1013.5
20260903184548 30 352 1.6 4.8 0.00 2.84 2.79 73 1013.6
20260903183009 30 152 1.6 6.4 0.00 2.84 2.79 74 1013.8
20260903181550 30 167 3.2 8.0 0.00 2.84 2.79 73 1013.9
20260903180026 30 70 1.6 9.7 0.00 2.84 2.79 74 1013.7
20260903174602 30 166 1.6 6.4 0.00 2.84 2.79 74 1014.1
20260903173034 30 36 1.6 6.4 0.00 2.84 2.79 76 1014.6
20260903171505 29 159 0.0 6.4 0.00 2.84 2.79 78 1014.8